sat.trackr.live / text

‹ back to catalog

STARLINK-4685

NORAD 53709 · 2022-107K

PAYLOAD ACTIVE UNKNOWN

§ Identity

Operator
Country
US
Launch date
2022-09-05
Launch site
AFETR
Launch vehicle
Mass (kg)
RCS (m²)

Purposes: comms

External: N2YO · Heavens-Above · Gunter

§ Orbital elements

Epoch: 2026-05-25T00:48:00.027360Z

Period
95.44 min
Inclination
53.2155°
Eccentricity
0.0001323
Mean motion
15.08828865 rev/d
Perigee alt
538.9 km
Apogee alt
540.7 km
Semi-major
6,917.9 km
B*
-4.5951e-5
RAAN
266.0943°
Arg perigee
91.6973°
Mean anomaly
268.4171°
Rev number
20,600

§ Raw data

STARLINK-46851 53709U 22107K   26145.03333365 -.00001019  00000+0 -45951-4 0  99902 53709  53.2155 266.0943 0001323  91.6973 268.4171 15.08828865206009

JSON: /api/v1/satellites/53709 · /tle

For live sub-satellite position, see the globe view (requires WebGL).

§ Visibility from observer

Set your observer location to see the next 7 days of passes ≥ 10°. The values pass through the URL so the page stays shareable.

No JS? Fill the form by hand. The geolocation button needs JavaScript.